Tracking 35280 objects as of 7-Sep-2026
HD Live streaming from Space Station
objects crossing your sky now

PSLV DEB


PSLV DEB is no longer on orbit


NORAD ID: 27592
Int'l Code: 2001-049NK
Launch date: October 22, 2001
Source: India (IND)
Launch site: SRIHARIKOTA (SRI)
Decay date: 2003-01-21

Note: This is SATELLITE DEBRIS
Your satellite tracking list
Your tracking list is empty




NASA's NSSDC Master Catalog

Two Line Element Set (TLE):
1 27592U 01049NK  03019.17543971 +.02846675 +98547-2 +52334-2 0  9991
2 27592 097.6755 109.9020 0006456 343.3028 016.8344 16.03744488044369
Source of the keplerian elements: AFSPC